Location: Soapstone Prairie Natural Area
(40.9437°N, 105.0829°W)
Time: 19:53:58
(UTC-07:00)

ISS - Visible Passes

Search period start: 25 November 2014 00:00
Search period end: 05 December 2014 00:00
Orbit: 407 x 417 km, 51.6° (Epoch: 25 November)

Date Brightness Start Highest point End Pass type
(mag) Time Alt. Az. Time Alt. Az. Time Alt. Az.
25 Nov -1.2 04:50:04 22° NE 04:50:04 22° NE 04:52:11 10° ENE visible
25 Nov -3.1 06:23:04 10° WNW 06:26:20 60° SW 06:29:35 10° SE visible
26 Nov -3.3 05:35:19 34° NW 05:36:35 75° NE 05:39:53 10° ESE visible
27 Nov -1.5 04:47:45 32° ENE 04:47:45 32° ENE 04:49:54 10° ESE visible
27 Nov -1.7 06:20:35 10° W 06:23:11 22° SW 06:25:47 10° S visible
28 Nov -2.7 05:33:02 37° WSW 05:33:28 39° SW 05:36:34 10° SSE visible
29 Nov -1.1 04:45:31 23° SE 04:45:31 23° SE 04:46:54 10° SE visible
30 Nov -1.0 05:30:52 14° SSW 05:30:52 14° SSW 05:31:55 10° SSW visible
